IRIDIUM 136

Last updated on Tue Sep 22 2026 00:03:21 GMT+0000 (Coordinated Universal Time)

1 42962U 17061H 26264.46433684 .00000027 00000+0 24218-5 0 9996 2 42962 86.4027 345.0307 0002204 95.1944 264.9503 14.34217828468630
UTC large
Height (km)
Speed (km/s)
/
Latitude / Longitude
Inclination (degrees)
Orbital Period (minutes)
Azimuth
Elevation
Range (km)
Doppler Factor

Next 0 passes for location: London (51.5072 / 0.1276)

No passes found over London.
IRIDIUM 136